| time (UTC) | temp F | wind direction | speed MPH | gust MPH | rain 1hr in | rain 24hr in | rain mn in | humidity % | barometer mb |
| 20260507114803 | 51 | 39 | 3.0 | 9.0 | 0.00 | 0.00 | 0.00 | 79 | 1018.4 |
| 20260507114303 | 51 | 18 | 5.0 | 10.0 | 0.00 | 0.00 | 0.00 | 79 | 1018.4 |
| 20260507113803 | 51 | 6 | 6.0 | 12.0 | 0.00 | 0.00 | 0.00 | 78 | 1018.4 |
| 20260507113303 | 51 | 358 | 5.0 | 9.0 | 0.00 | 0.00 | 0.00 | 78 | 1018.3 |
| 20260507112803 | 51 | 338 | 2.0 | 7.0 | 0.00 | 0.00 | 0.00 | 79 | 1018.3 |
| 20260507112307 | 51 | 355 | 2.0 | 7.0 | 0.00 | 0.00 | 0.00 | 79 | 1018.2 |
| 20260507111803 | 51 | 37 | 3.0 | 7.0 | 0.00 | 0.00 | 0.00 | 79 | 1018.3 |
| 20260507110803 | 51 | 38 | 5.0 | 9.0 | 0.00 | 0.00 | 0.00 | 78 | 1018.5 |
| 20260507110303 | 51 | 41 | 4.0 | 9.0 | 0.00 | 0.00 | 0.00 | 77 | 1018.4 |
| 20260507105803 | 52 | 37 | 6.0 | 12.0 | 0.00 | 0.00 | 0.00 | 77 | 1018.3 |
| 20260507105306 | 52 | 40 | 7.0 | 12.0 | 0.00 | 0.00 | 0.00 | 76 | 1018.4 |
| 20260507104804 | 52 | 38 | 3.0 | 12.0 | 0.00 | 0.00 | 0.00 | 77 | 1018.5 |
| 20260507104303 | 52 | 69 | 5.0 | 10.0 | 0.00 | 0.00 | 0.00 | 76 | 1018.4 |
| 20260507103306 | 52 | 349 | 6.0 | 10.0 | 0.00 | 0.00 | 0.00 | 77 | 1018.7 |
| 20260507102803 | 52 | 343 | 5.0 | 12.0 | 0.00 | 0.00 | 0.00 | 76 | 1018.7 |
| 20260507101303 | 52 | 37 | 4.0 | 7.0 | 0.00 | 0.00 | 0.00 | 72 | 1018.5 |
| 20260507100803 | 52 | 347 | 2.0 | 5.0 | 0.00 | 0.00 | 0.00 | 73 | 1018.6 |
| 20260507100303 | 52 | 107 | 4.0 | 6.0 | 0.00 | 0.00 | 0.00 | 71 | 1018.6 |
| 20260507095803 | 53 | 67 | 1.0 | 5.0 | 0.00 | 0.00 | 0.00 | 71 | 1018.5 |
| 20260507095305 | 52 | 91 | 4.0 | 6.0 | 0.00 | 0.00 | 0.00 | 70 | 1018.6 |
| 20260507094803 | 53 | 61 | 3.0 | 5.0 | 0.00 | 0.00 | 0.00 | 71 | 1018.5 |
| 20260507094303 | 52 | 97 | 2.0 | 5.0 | 0.00 | 0.00 | 0.00 | 73 | 1018.5 |
| 20260507093804 | 52 | 89 | 3.0 | 8.0 | 0.00 | 0.00 | 0.00 | 72 | 1018.5 |
| 20260507093303 | 52 | 158 | 5.0 | 8.0 | 0.00 | 0.00 | 0.00 | 71 | 1018.5 |
| 20260507092803 | 52 | 106 | 4.0 | 6.0 | 0.00 | 0.00 | 0.00 | 71 | 1018.5 |
| 20260507092306 | 52 | 172 | 3.0 | 6.0 | 0.00 | 0.00 | 0.00 | 73 | 1018.5 |
| 20260507091803 | 52 | 117 | 5.0 | 9.0 | 0.00 | 0.00 | 0.00 | 72 | 1018.5 |
| 20260507090804 | 52 | 134 | 3.0 | 7.0 | 0.00 | 0.00 | 0.00 | 74 | 1018.6 |
| 20260507090303 | 52 | 73 | 6.0 | 10.0 | 0.00 | 0.00 | 0.00 | 74 | 1018.5 |
| 20260507084803 | 51 | 84 | 7.0 | 10.0 | 0.00 | 0.00 | 0.00 | 73 | 1018.5 |
| 20260507083805 | 51 | 89 | 6.0 | 10.0 | 0.00 | 0.00 | 0.00 | 77 | 1018.4 |
| 20260507083303 | 50 | 135 | 3.0 | 7.0 | 0.00 | 0.00 | 0.00 | 78 | 1018.6 |
| 20260507081803 | 49 | 105 | 6.0 | 8.0 | 0.00 | 0.00 | 0.00 | 78 | 1018.4 |
| 20260507081303 | 49 | 96 | 3.0 | 6.0 | 0.00 | 0.00 | 0.00 | 79 | 1018.5 |
| 20260507080803 | 49 | 102 | 3.0 | 5.0 | 0.00 | 0.00 | 0.00 | 79 | 1018.5 |
| 20260507080303 | 49 | 86 | 3.0 | 5.0 | 0.00 | 0.00 | 0.00 | 78 | 1018.5 |
| 20260507075803 | 49 | 98 | 3.0 | 6.0 | 0.00 | 0.00 | 0.00 | 79 | 1018.5 |
| 20260507075306 | 49 | 97 | 3.0 | 3.0 | 0.00 | 0.00 | 0.00 | 79 | 1018.3 |
| 20260507074804 | 49 | 97 | 4.0 | 6.0 | 0.00 | 0.00 | 0.00 | 78 | 1018.3 |
| 20260507074303 | 49 | 96 | 6.0 | 8.0 | 0.00 | 0.00 | 0.00 | 78 | 1018.3 |
| 20260507073803 | 49 | 106 | 5.0 | 8.0 | 0.00 | 0.00 | 0.00 | 78 | 1018.2 |
| 20260507073303 | 49 | 107 | 6.0 | 10.0 | 0.00 | 0.00 | 0.00 | 78 | 1018.2 |
| 20260507072803 | 49 | 114 | 6.0 | 9.0 | 0.00 | 0.00 | 0.00 | 78 | 1018.2 |
| 20260507072306 | 49 | 122 | 6.0 | 8.0 | 0.00 | 0.00 | 0.00 | 78 | 1018.2 |
| 20260507071803 | 49 | 119 | 7.0 | 9.0 | 0.00 | 0.00 | 0.00 | 78 | 1018.0 |
| 20260507071303 | 49 | 138 | 7.0 | 10.0 | 0.00 | 0.00 | 0.00 | 78 | 1018.0 |
| 20260507070804 | 48 | 97 | 9.0 | 12.0 | 0.00 | 0.00 | 0.00 | 80 | 1018.1 |
| 20260507070303 | 48 | 117 | 7.0 | 12.0 | 0.00 | 0.00 | 0.00 | 81 | 1018.2 |
| 20260507065803 | 48 | 112 | 7.0 | 10.0 | 0.00 | 0.00 | 0.00 | 82 | 1018.1 |
| 20260507064803 | 48 | 114 | 7.0 | 8.0 | 0.00 | 0.00 | 0.00 | 83 | 1018.0 |
| 20260507064303 | 47 | 111 | 6.0 | 8.0 | 0.00 | 0.00 | 0.00 | 83 | 1018.0 |
| 20260507063803 | 47 | 112 | 6.0 | 7.0 | 0.00 | 0.00 | 0.00 | 84 | 1017.9 |
| 20260507063304 | 47 | 115 | 6.0 | 7.0 | 0.00 | 0.00 | 0.00 | 84 | 1018.0 |
| 20260507062803 | 47 | 136 | 5.0 | 6.0 | 0.00 | 0.00 | 0.00 | 84 | 1017.9 |
| 20260507062306 | 47 | 114 | 4.0 | 5.0 | 0.00 | 0.00 | 0.00 | 85 | 1018.0 |
| 20260507061804 | 47 | 142 | 3.0 | 3.0 | 0.00 | 0.00 | 0.00 | 85 | 1018.0 |
| 20260507061303 | 47 | 157 | 3.0 | 3.0 | 0.00 | 0.00 | 0.00 | 86 | 1018.0 |
| 20260507060803 | 47 | 152 | 3.0 | 3.0 | 0.00 | 0.00 | 0.00 | 86 | 1018.0 |
| 20260507055803 | 46 | 138 | 2.0 | 3.0 | 0.00 | 0.00 | 0.00 | 86 | 1017.9 |
| 20260507055306 | 46 | 142 | 2.0 | 3.0 | 0.00 | 0.00 | 0.00 | 86 | 1017.8 |
| 20260507054805 | 46 | 143 | 2.0 | 3.0 | 0.00 | 0.00 | 0.00 | 87 | 1017.7 |
| 20260507054303 | 46 | 142 | 2.0 | 2.0 | 0.00 | 0.00 | 0.00 | 86 | 1017.7 |
| 20260507052805 | 46 | 133 | 2.0 | 2.0 | 0.00 | 0.03 | 0.00 | 86 | 1017.6 |
| 20260507051805 | 46 | 136 | 2.0 | 3.0 | 0.00 | 0.04 | 0.00 | 86 | 1017.6 |
| 20260507051303 | 46 | 140 | 2.0 | 3.0 | 0.00 | 0.04 | 0.00 | 86 | 1017.6 |
| 20260507050803 | 46 | 136 | 2.0 | 3.0 | 0.00 | 0.04 | 0.00 | 87 | 1017.6 |
| 20260507050304 | 46 | 128 | 2.0 | 3.0 | 0.00 | 0.04 | 0.00 | 87 | 1017.6 |
| 20260507045803 | 46 | 127 | 3.0 | 3.0 | 0.00 | 0.04 | 0.00 | 87 | 1017.6 |
| 20260507045306 | 45 | 125 | 2.0 | 3.0 | 0.00 | 0.04 | 0.00 | 87 | 1017.6 |
| 20260507044803 | 45 | 124 | 2.0 | 3.0 | 0.00 | 0.04 | 0.00 | 86 | 1017.5 |
| 20260507044304 | 45 | 122 | 2.0 | 3.0 | 0.00 | 0.04 | 0.00 | 86 | 1017.5 |
| 20260507043303 | 45 | 135 | 2.0 | 3.0 | 0.00 | 0.04 | 0.00 | 87 | 1017.5 |
| 20260507042306 | 45 | 136 | 0.0 | 0.0 | 0.00 | 0.04 | 0.00 | 87 | 1017.4 |
| 20260507041803 | 45 | 124 | 0.0 | 0.0 | 0.00 | 0.04 | 0.00 | 88 | 1017.3 |
| 20260507041303 | 46 | 122 | 0.0 | 0.0 | 0.00 | 0.04 | 0.00 | 87 | 1017.2 |
| 20260507040304 | 46 | 123 | 0.0 | 0.0 | 0.00 | 0.04 | 0.00 | 87 | 1017.2 |
| 20260507035804 | 46 | 146 | 0.0 | 0.0 | 0.00 | 0.04 | 0.00 | 87 | 1017.2 |
| 20260507034803 | 46 | 146 | 0.0 | 0.0 | 0.00 | 0.04 | 0.00 | 87 | 1017.2 |
| 20260507033805 | 46 | 139 | 0.0 | 0.0 | 0.00 | 0.04 | 0.00 | 86 | 1017.1 |
| 20260507033303 | 46 | 143 | 0.0 | 0.0 | 0.00 | 0.04 | 0.00 | 86 | 1017.1 |
| 20260507032803 | 46 | 146 | 0.0 | 1.0 | 0.00 | 0.04 | 0.00 | 86 | 1017.1 |
| 20260507032305 | 46 | 146 | 1.0 | 2.0 | 0.00 | 0.04 | 0.00 | 86 | 1017.1 |
| 20260507031804 | 46 | 146 | 2.0 | 2.0 | 0.00 | 0.04 | 0.00 | 86 | 1017.1 |
| 20260507031305 | 46 | 146 | 1.0 | 2.0 | 0.00 | 0.04 | 0.00 | 86 | 1017.1 |
| 20260507030803 | 46 | 147 | 1.0 | 2.0 | 0.00 | 0.04 | 0.00 | 86 | 1017.1 |
| 20260507030303 | 46 | 147 | 2.0 | 3.0 | 0.00 | 0.04 | 0.00 | 86 | 1017.1 |
| 20260507025803 | 46 | 151 | 2.0 | 3.0 | 0.00 | 0.04 | 0.00 | 86 | 1017.1 |
| 20260507025306 | 46 | 147 | 2.0 | 3.0 | 0.00 | 0.04 | 0.00 | 86 | 1017.1 |
| 20260507024803 | 46 | 146 | 2.0 | 3.0 | 0.00 | 0.04 | 0.00 | 86 | 1017.1 |
| 20260507024303 | 46 | 150 | 2.0 | 2.0 | 0.00 | 0.04 | 0.00 | 86 | 1017.1 |
| 20260507023804 | 46 | 136 | 1.0 | 2.0 | 0.00 | 0.04 | 0.00 | 86 | 1017.1 |
| 20260507023304 | 46 | 143 | 1.0 | 2.0 | 0.00 | 0.04 | 0.00 | 87 | 1017.1 |
| 20260507022803 | 46 | 148 | 1.0 | 2.0 | 0.00 | 0.04 | 0.00 | 86 | 1017.0 |
| 20260507022306 | 46 | 118 | 1.0 | 1.0 | 0.00 | 0.04 | 0.00 | 86 | 1017.0 |
| 20260507021804 | 46 | 142 | 1.0 | 2.0 | 0.00 | 0.04 | 0.00 | 86 | 1017.0 |
| 20260507021303 | 46 | 145 | 2.0 | 2.0 | 0.00 | 0.04 | 0.00 | 86 | 1017.1 |
| 20260507020804 | 46 | 127 | 2.0 | 3.0 | 0.00 | 0.04 | 0.00 | 86 | 1017.0 |
| 20260507020303 | 46 | 136 | 2.0 | 2.0 | 0.00 | 0.04 | 0.00 | 86 | 1017.1 |
| 20260507015804 | 46 | 139 | 2.0 | 3.0 | 0.00 | 0.04 | 0.00 | 86 | 1017.1 |
| 20260507014804 | 46 | 119 | 1.0 | 2.0 | 0.00 | 0.04 | 0.00 | 85 | 1016.9 |
| 20260507014303 | 46 | 109 | 2.0 | 3.0 | 0.00 | 0.04 | 0.00 | 85 | 1017.0 |
| 20260507013804 | 46 | 108 | 3.0 | 3.0 | 0.00 | 0.04 | 0.00 | 85 | 1017.0 |
| 20260507012804 | 47 | 107 | 2.0 | 3.0 | 0.00 | 0.04 | 0.00 | 85 | 1017.0 |
| 20260507012306 | 47 | 96 | 2.0 | 3.0 | 0.00 | 0.04 | 0.00 | 85 | 1016.9 |
| 20260507011803 | 47 | 91 | 2.0 | 3.0 | 0.00 | 0.04 | 0.00 | 85 | 1017.0 |
| 20260507011304 | 47 | 82 | 1.0 | 3.0 | 0.00 | 0.04 | 0.00 | 85 | 1016.9 |
| 20260507010803 | 47 | 86 | 2.0 | 3.0 | 0.00 | 0.04 | 0.00 | 85 | 1016.9 |
| 20260507005803 | 47 | 88 | 2.0 | 3.0 | 0.00 | 0.04 | 0.00 | 85 | 1016.9 |
| 20260507005305 | 47 | 85 | 2.0 | 3.0 | 0.00 | 0.04 | 0.00 | 85 | 1016.9 |
| 20260507004304 | 47 | 88 | 1.0 | 2.0 | 0.00 | 0.04 | 0.00 | 85 | 1017.1 |
| 20260507003804 | 47 | 81 | 2.0 | 3.0 | 0.00 | 0.04 | 0.00 | 85 | 1017.0 |
| 20260507003305 | 47 | 72 | 1.0 | 3.0 | 0.00 | 0.04 | 0.00 | 85 | 1017.1 |
| 20260507002804 | 47 | 82 | 1.0 | 3.0 | 0.00 | 0.04 | 0.00 | 85 | 1017.0 |
| 20260507002306 | 47 | 68 | 2.0 | 3.0 | 0.00 | 0.04 | 0.00 | 85 | 1017.0 |
| 20260507001804 | 47 | 88 | 1.0 | 3.0 | 0.00 | 0.04 | 0.00 | 85 | 1017.0 |
| 20260507001304 | 47 | 62 | 2.0 | 3.0 | 0.00 | 0.04 | 0.00 | 85 | 1017.1 |
| 20260507000803 | 47 | 60 | 2.0 | 3.0 | 0.00 | 0.04 | 0.00 | 84 | 1017.1 |
| 20260507000306 | 47 | 44 | 2.0 | 5.0 | 0.00 | 0.04 | 0.00 | 84 | 1017.1 |
| 20260506235802 | 47 | 74 | 2.0 | 3.0 | 0.00 | 0.04 | 0.00 | 84 | 1017.2 |
| 20260506235301 | 47 | 45 | 2.0 | 5.0 | 0.00 | 0.04 | 0.00 | 84 | 1017.2 |
| 20260506234801 | 47 | 326 | 2.0 | 3.0 | 0.00 | 0.04 | 0.00 | 84 | 1017.0 |
| 20260506234302 | 47 | 68 | 2.0 | 5.0 | 0.00 | 0.04 | 0.00 | 84 | 1017.2 |
| 20260506233302 | 47 | 55 | 1.0 | 3.0 | 0.00 | 0.04 | 0.00 | 84 | 1017.1 |
| 20260506232802 | 47 | 77 | 2.0 | 3.0 | 0.00 | 0.04 | 0.00 | 84 | 1017.1 |
| 20260506232301 | 47 | 48 | 2.0 | 3.0 | 0.00 | 0.04 | 0.00 | 84 | 1017.1 |
| 20260506231801 | 47 | 50 | 2.0 | 5.0 | 0.00 | 0.04 | 0.00 | 84 | 1017.1 |
| 20260506230802 | 47 | 47 | 3.0 | 6.0 | 0.00 | 0.04 | 0.00 | 84 | 1017.0 |
| 20260506230301 | 47 | 37 | 3.0 | 7.0 | 0.00 | 0.04 | 0.00 | 84 | 1017.0 |
| 20260506225802 | 47 | 53 | 2.0 | 6.0 | 0.00 | 0.04 | 0.04 | 84 | 1017.0 |
| 20260506225305 | 47 | 60 | 3.0 | 6.0 | 0.00 | 0.04 | 0.04 | 84 | 1017.1 |
| 20260506224301 | 47 | 28 | 2.0 | 5.0 | 0.00 | 0.04 | 0.04 | 84 | 1017.1 |
| 20260506223801 | 47 | 45 | 2.0 | 5.0 | 0.00 | 0.04 | 0.04 | 84 | 1017.1 |
| 20260506223303 | 47 | 63 | 2.0 | 7.0 | 0.00 | 0.04 | 0.04 | 84 | 1017.1 |
| 20260506222802 | 47 | 65 | 3.0 | 6.0 | 0.00 | 0.04 | 0.04 | 84 | 1017.1 |
| 20260506222305 | 47 | 5 | 2.0 | 6.0 | 0.00 | 0.04 | 0.04 | 84 | 1017.2 |
| 20260506221801 | 47 | 338 | 2.0 | 8.0 | 0.00 | 0.04 | 0.04 | 84 | 1017.0 |
| 20260506221301 | 47 | 4 | 2.0 | 6.0 | 0.00 | 0.04 | 0.04 | 84 | 1017.1 |
| 20260506220802 | 47 | 35 | 3.0 | 6.0 | 0.00 | 0.04 | 0.04 | 84 | 1017.1 |
| 20260506220302 | 47 | 17 | 1.0 | 3.0 | 0.00 | 0.04 | 0.04 | 84 | 1017.1 |
| 20260506215802 | 47 | 44 | 2.0 | 6.0 | 0.00 | 0.04 | 0.04 | 84 | 1017.2 |
| 20260506215305 | 47 | 13 | 3.0 | 8.0 | 0.00 | 0.04 | 0.04 | 84 | 1017.1 |
| 20260506214801 | 47 | 57 | 2.0 | 5.0 | 0.00 | 0.04 | 0.04 | 84 | 1017.1 |
| 20260506214302 | 47 | 30 | 2.0 | 5.0 | 0.00 | 0.04 | 0.04 | 84 | 1017.0 |
| 20260506213802 | 47 | 37 | 2.0 | 8.0 | 0.00 | 0.04 | 0.04 | 84 | 1016.9 |
| 20260506213303 | 47 | 19 | 3.0 | 9.0 | 0.00 | 0.04 | 0.04 | 85 | 1017.0 |
| 20260506212801 | 47 | 298 | 0.0 | 6.0 | 0.00 | 0.04 | 0.04 | 84 | 1016.8 |
| 20260506211301 | 47 | 5 | 3.0 | 8.0 | 0.00 | 0.04 | 0.04 | 85 | 1016.8 |
| 20260506210801 | 47 | 41 | 3.0 | 7.0 | 0.00 | 0.04 | 0.04 | 85 | 1016.7 |
| 20260506210302 | 47 | 53 | 0.0 | 5.0 | 0.00 | 0.04 | 0.04 | 85 | 1016.8 |
| 20260506205802 | 47 | 34 | 3.0 | 7.0 | 0.00 | 0.04 | 0.04 | 85 | 1016.8 |
| 20260506205305 | 47 | 17 | 2.0 | 8.0 | 0.00 | 0.04 | 0.04 | 85 | 1016.7 |
| 20260506204802 | 47 | 12 | 3.0 | 9.0 | 0.00 | 0.04 | 0.04 | 85 | 1016.7 |
| 20260506204303 | 47 | 21 | 1.0 | 8.0 | 0.00 | 0.04 | 0.04 | 85 | 1016.8 |
| 20260506203802 | 47 | 30 | 3.0 | 7.0 | 0.00 | 0.04 | 0.04 | 85 | 1016.8 |
| 20260506203301 | 47 | 13 | 3.0 | 8.0 | 0.00 | 0.04 | 0.04 | 85 | 1016.7 |
| 20260506202801 | 47 | 24 | 2.0 | 8.0 | 0.00 | 0.04 | 0.04 | 85 | 1016.8 |
| 20260506201802 | 47 | 32 | 2.0 | 6.0 | 0.00 | 0.04 | 0.04 | 86 | 1016.7 |
| 20260506201302 | 47 | 0 | 2.0 | 9.0 | 0.00 | 0.04 | 0.04 | 86 | 1016.6 |
| 20260506200802 | 47 | 359 | 4.0 | 8.0 | 0.00 | 0.04 | 0.04 | 86 | 1016.6 |
| 20260506200301 | 47 | 31 | 5.0 | 12.0 | 0.00 | 0.04 | 0.04 | 86 | 1016.6 |
| 20260506195802 | 47 | 7 | 5.0 | 12.0 | 0.00 | 0.04 | 0.04 | 86 | 1016.6 |
| 20260506195305 | 47 | 31 | 5.0 | 10.0 | 0.00 | 0.04 | 0.04 | 86 | 1016.5 |
| 20260506194301 | 47 | 5 | 9.0 | 15.0 | 0.00 | 0.04 | 0.04 | 86 | 1016.5 |
| 20260506193302 | 47 | 3 | 8.0 | 13.0 | 0.00 | 0.04 | 0.04 | 88 | 1016.4 |
| 20260506192804 | 47 | 355 | 7.0 | 14.0 | 0.00 | 0.04 | 0.04 | 88 | 1016.4 |
| 20260506192305 | 47 | 8 | 8.0 | 14.0 | 0.00 | 0.04 | 0.04 | 88 | 1016.4 |
| 20260506191802 | 47 | 15 | 6.0 | 12.0 | 0.00 | 0.04 | 0.04 | 89 | 1016.4 |
| 20260506191302 | 47 | 354 | 6.0 | 14.0 | 0.00 | 0.04 | 0.04 | 89 | 1016.3 |
| 20260506190802 | 47 | 8 | 7.0 | 12.0 | 0.00 | 0.04 | 0.04 | 89 | 1016.4 |
| 20260506185302 | 47 | 357 | 5.0 | 12.0 | 0.00 | 0.04 | 0.04 | 91 | 1016.4 |
| 20260506184302 | 47 | 356 | 5.0 | 15.0 | 0.00 | 0.04 | 0.04 | 91 | 1016.3 |
| 20260506183801 | 47 | 5 | 7.0 | 16.0 | 0.00 | 0.04 | 0.04 | 91 | 1016.2 |
| 20260506183302 | 47 | 24 | 9.0 | 16.0 | 0.00 | 0.04 | 0.04 | 91 | 1016.1 |
| 20260506182802 | 47 | 3 | 7.0 | 12.0 | 0.00 | 0.04 | 0.04 | 92 | 1016.1 |
| 20260506182306 | 47 | 6 | 7.0 | 13.0 | 0.00 | 0.04 | 0.04 | 92 | 1016.0 |
| 20260506181802 | 47 | 0 | 7.0 | 14.0 | 0.00 | 0.04 | 0.04 | 92 | 1015.9 |
| 20260506180801 | 47 | 355 | 7.0 | 16.0 | 0.00 | 0.04 | 0.04 | 92 | 1015.8 |
| 20260506180302 | 47 | 357 | 6.0 | 14.0 | 0.00 | 0.04 | 0.04 | 92 | 1015.8 |
| 20260506175305 | 47 | 357 | 7.0 | 13.0 | 0.00 | 0.04 | 0.04 | 91 | 1015.7 |
| 20260506174302 | 47 | 353 | 7.0 | 15.0 | 0.00 | 0.04 | 0.04 | 91 | 1015.6 |
| 20260506173802 | 47 | 8 | 7.0 | 15.0 | 0.00 | 0.04 | 0.04 | 91 | 1015.6 |
| 20260506173302 | 47 | 9 | 7.0 | 14.0 | 0.00 | 0.04 | 0.04 | 91 | 1015.6 |
| 20260506172801 | 47 | 9 | 8.0 | 13.0 | 0.00 | 0.04 | 0.04 | 91 | 1015.6 |
| 20260506172306 | 47 | 4 | 7.0 | 12.0 | 0.00 | 0.04 | 0.04 | 91 | 1015.5 |
| 20260506171801 | 47 | 354 | 7.0 | 15.0 | 0.00 | 0.04 | 0.04 | 91 | 1015.5 |
| 20260506170802 | 47 | 2 | 7.0 | 16.0 | 0.00 | 0.04 | 0.04 | 91 | 1015.4 |
| 20260506170303 | 48 | 12 | 8.0 | 16.0 | 0.00 | 0.04 | 0.04 | 91 | 1015.4 |
| 20260506165802 | 47 | 12 | 9.0 | 15.0 | 0.00 | 0.04 | 0.04 | 90 | 1015.4 |
| 20260506165305 | 47 | 352 | 10.0 | 16.0 | 0.00 | 0.04 | 0.04 | 91 | 1015.3 |
| 20260506164802 | 47 | 351 | 10.0 | 18.0 | 0.00 | 0.04 | 0.04 | 91 | 1015.3 |
| 20260506164302 | 47 | 2 | 11.0 | 17.0 | 0.00 | 0.04 | 0.04 | 91 | 1015.3 |
| 20260506163802 | 47 | 2 | 10.0 | 20.0 | 0.00 | 0.04 | 0.04 | 91 | 1015.3 |
| 20260506163302 | 47 | 4 | 9.0 | 18.0 | 0.00 | 0.04 | 0.04 | 92 | 1015.4 |
| 20260506162804 | 47 | 5 | 7.0 | 17.0 | 0.00 | 0.04 | 0.04 | 92 | 1015.4 |
| 20260506161802 | 47 | 5 | 12.0 | 18.0 | 0.00 | 0.04 | 0.04 | 91 | 1015.4 |
| 20260506160802 | 48 | 19 | 10.0 | 18.0 | 0.00 | 0.04 | 0.04 | 90 | 1015.3 |
| 20260506160302 | 48 | 1 | 12.0 | 18.0 | 0.00 | 0.04 | 0.04 | 91 | 1015.3 |
| 20260506155803 | 48 | 8 | 10.0 | 18.0 | 0.00 | 0.04 | 0.04 | 90 | 1015.3 |
| 20260506154802 | 49 | 5 | 10.0 | 17.0 | 0.00 | 0.04 | 0.04 | 90 | 1015.4 |
| 20260506154304 | 49 | 0 | 12.0 | 18.0 | 0.00 | 0.04 | 0.04 | 90 | 1015.3 |
| 20260506153802 | 49 | 355 | 10.0 | 18.0 | 0.00 | 0.04 | 0.04 | 90 | 1015.3 |
| 20260506153302 | 49 | 12 | 9.0 | 20.0 | 0.00 | 0.04 | 0.04 | 91 | 1015.3 |
| 20260506152802 | 49 | 15 | 10.0 | 18.0 | 0.00 | 0.04 | 0.04 | 90 | 1015.1 |
| 20260506152305 | 49 | 7 | 7.0 | 15.0 | 0.00 | 0.04 | 0.04 | 90 | 1015.1 |
| 20260506151802 | 49 | 14 | 9.0 | 17.0 | 0.00 | 0.04 | 0.04 | 91 | 1015.1 |
| 20260506151301 | 49 | 3 | 9.0 | 15.0 | 0.00 | 0.04 | 0.04 | 90 | 1015.1 |
| 20260506150802 | 49 | 7 | 9.0 | 14.0 | 0.00 | 0.04 | 0.04 | 90 | 1015.1 |
| 20260506150304 | 49 | 339 | 9.0 | 17.0 | 0.00 | 0.04 | 0.04 | 90 | 1015.1 |
| 20260506145804 | 50 | 351 | 9.0 | 16.0 | 0.00 | 0.04 | 0.04 | 90 | 1015.1 |
| 20260506144302 | 50 | 11 | 8.0 | 15.0 | 0.00 | 0.04 | 0.04 | 89 | 1015.1 |
| 20260506143802 | 50 | 0 | 9.0 | 15.0 | 0.00 | 0.04 | 0.04 | 89 | 1015.0 |
| 20260506143303 | 50 | 349 | 8.0 | 17.0 | 0.00 | 0.04 | 0.04 | 89 | 1014.9 |
| 20260506142802 | 50 | 0 | 7.0 | 17.0 | 0.00 | 0.04 | 0.04 | 89 | 1015.0 |
| 20260506142306 | 50 | 335 | 6.0 | 14.0 | 0.00 | 0.04 | 0.04 | 90 | 1015.1 |
| 20260506141302 | 49 | 4 | 9.0 | 14.0 | 0.00 | 0.04 | 0.04 | 90 | 1015.1 |
| 20260506140302 | 49 | 340 | 7.0 | 12.0 | 0.00 | 0.04 | 0.04 | 90 | 1015.1 |
| 20260506135305 | 49 | 349 | 6.0 | 12.0 | 0.00 | 0.04 | 0.04 | 91 | 1015.2 |
| 20260506134803 | 49 | 4 | 8.0 | 16.0 | 0.00 | 0.04 | 0.04 | 91 | 1015.2 |
| 20260506134302 | 49 | 8 | 8.0 | 15.0 | 0.00 | 0.04 | 0.04 | 91 | 1015.2 |
| 20260506133802 | 49 | 347 | 7.0 | 15.0 | 0.00 | 0.04 | 0.04 | 91 | 1015.0 |
| 20260506133302 | 49 | 354 | 8.0 | 14.0 | 0.00 | 0.04 | 0.04 | 90 | 1015.1 |
| 20260506132805 | 49 | 328 | 8.0 | 16.0 | 0.00 | 0.04 | 0.04 | 89 | 1015.1 |
| 20260506132302 | 50 | 341 | 7.0 | 14.0 | 0.00 | 0.04 | 0.04 | 88 | 1015.2 |
| 20260506131802 | 50 | 346 | 6.0 | 14.0 | 0.00 | 0.04 | 0.04 | 88 | 1015.2 |
| 20260506130803 | 50 | 338 | 7.0 | 15.0 | 0.00 | 0.04 | 0.04 | 87 | 1015.2 |
| 20260506130302 | 50 | 356 | 7.0 | 15.0 | 0.00 | 0.04 | 0.04 | 88 | 1015.1 |
| 20260506125802 | 50 | 337 | 9.0 | 14.0 | 0.00 | 0.04 | 0.04 | 88 | 1015.2 |
| 20260506125305 | 50 | 340 | 11.0 | 16.0 | 0.00 | 0.04 | 0.04 | 87 | 1015.2 |
| 20260506124803 | 50 | 341 | 10.0 | 14.0 | 0.00 | 0.04 | 0.04 | 87 | 1015.0 |
| 20260506124302 | 50 | 340 | 9.0 | 16.0 | 0.00 | 0.04 | 0.04 | 87 | 1015.0 |
| 20260506123802 | 50 | 321 | 7.0 | 14.0 | 0.00 | 0.04 | 0.04 | 87 | 1015.1 |
| 20260506123302 | 50 | 345 | 10.0 | 16.0 | 0.00 | 0.04 | 0.04 | 86 | 1015.2 |
| 20260506122804 | 51 | 334 | 8.0 | 16.0 | 0.00 | 0.04 | 0.04 | 87 | 1015.2 |
| 20260506122305 | 51 | 322 | 7.0 | 13.0 | 0.00 | 0.04 | 0.04 | 86 | 1015.1 |
| 20260506121804 | 50 | 334 | 8.0 | 15.0 | 0.00 | 0.04 | 0.04 | 87 | 1015.1 |
| 20260506121302 | 50 | 344 | 7.0 | 15.0 | 0.00 | 0.04 | 0.04 | 87 | 1015.0 |
| 20260506120802 | 50 | 347 | 8.0 | 12.0 | 0.00 | 0.04 | 0.04 | 87 | 1014.9 |
| 20260506120302 | 51 | 333 | 10.0 | 14.0 | 0.00 | 0.04 | 0.04 | 86 | 1014.9 |
| 20260506115804 | 51 | 349 | 7.0 | 13.0 | 0.00 | 0.04 | 0.04 | 87 | 1015.0 |
| 20260506115306 | 50 | 351 | 9.0 | 15.0 | 0.00 | 0.04 | 0.04 | 86 | 1015.1 |